Location: Unspecified
(0.0000°N, 0.0000°E)
Time: 19:29:20
(UTC+00:00)

Vanguard 1 - All Passes

Search period start: 22 May 2017 00:00
Search period end: 01 June 2017 00:00
Orbit: 654 x 3830 km, 34.2° (Epoch: 21 May)

Date Brightness Start Highest point End Pass type
(mag) Time Alt. Az. Time Alt. Az. Time Alt. Az.
22 May - 00:59:44 10° NW 01:23:08 83° NE 01:43:11 10° SE visible
22 May - 03:28:46 10° WNW 03:49:54 44° SW 04:04:35 10° SSE visible
22 May - 06:11:03 10° SW 06:16:11 12° SSW 06:20:33 10° S daylight
22 May - 13:25:13 10° SW 13:29:38 83° SE 13:35:01 10° NE daylight
22 May - 15:47:54 10° NW 15:51:07 15° NNW 15:55:10 10° NNE daylight
22 May - 20:37:22 10° NNW 20:47:20 18° NNE 20:59:57 10° ENE visible
22 May - 22:57:37 10° NW 23:16:50 47° NE 23:38:17 10° ESE visible
23 May - 01:21:24 10° NW 01:44:57 83° SW 02:04:35 10° SE visible
23 May - 03:52:32 10° W 04:11:40 34° SW 04:25:10 10° SSE visible
23 May - 11:28:02 10° S 11:30:30 14° SSE 11:32:48 10° ESE daylight
23 May - 13:46:27 10° WSW 13:50:44 50° NW 13:56:08 10° NE daylight
23 May - 20:58:02 10° NNW 21:10:13 23° NNE 21:25:55 10° ENE visible
23 May - 23:18:36 10° NW 23:38:54 58° NE 00:00:59 10° ESE visible
24 May - 01:43:22 10° WNW 02:06:43 69° SW 02:25:45 10° SE visible
24 May - 04:17:07 10° W 04:33:40 26° SW 04:45:38 10° SSE visible
24 May - 11:47:49 10° SSW 11:51:51 25° SSE 11:55:32 10° E daylight
24 May - 14:08:09 10° W 14:12:00 27° NNW 14:16:48 10° NNE daylight
24 May - 21:18:41 10° NNW 21:32:45 29° NNE 21:51:04 10° E visible
24 May - 23:39:44 10° NW 00:00:49 70° NE 00:23:12 10° ESE visible
25 May - 02:05:46 10° WNW 02:28:31 56° SW 02:46:45 10° SE visible
25 May - 04:42:40 10° WSW 04:55:58 20° SSW 05:05:59 10° SSE visible
25 May - 12:08:22 10° SW 12:13:00 48° SE 12:17:22 10° ENE daylight
25 May - 14:30:34 10° WNW 14:33:28 16° NNW 14:36:55 10° NNE daylight
25 May - 19:22:29 10° N 19:26:29 11° NNE 19:31:03 10° NE visible
25 May - 21:39:21 10° NNW 21:54:58 37° NE 22:15:21 10° E visible
26 May - 00:01:01 10° NW 00:22:39 84° NE 00:45:01 10° SE visible
26 May - 02:28:42 10° WNW 02:50:25 45° SW 03:07:37 10° SSE visible
26 May - 05:09:08 10° WSW 05:18:37 15° SSW 05:26:10 10° S visible
26 May - 10:11:14 10° S 10:13:00 11° SSE 10:14:36 10° SE daylight
26 May - 12:29:22 10° SW 12:34:03 84° NW 12:38:40 10° NE daylight
26 May - 19:41:53 10° N 19:49:18 15° NNE 19:58:42 10° ENE visible
26 May - 22:00:06 10° NNW 22:16:57 46° NE 22:38:52 10° ESE visible
27 May - 00:22:34 10° NW 00:44:30 81° SW 01:06:32 10° SE visible
27 May - 02:52:18 10° W 03:12:30 36° SW 03:28:23 10° SSE visible
27 May - 05:36:34 10° SW 05:41:34 12° SSW 05:45:55 10° S visible
27 May - 10:30:30 10° SSW 10:34:41 19° SSE 10:38:03 10° ESE daylight
27 May - 12:50:49 10° WSW 12:55:08 41° NW 12:59:33 10° NE daylight
27 May - 20:01:56 10° N 20:11:49 20° NNE 20:25:07 10° ENE visible
27 May - 22:20:56 10° NW 22:38:46 58° NE 23:01:44 10° ESE visible
28 May - 00:44:25 10° WNW 01:06:22 68° SW 01:27:50 10° SE visible
28 May - 03:16:40 10° W 03:34:51 28° SSW 03:49:06 10° SSE visible
28 May - 10:50:52 10° SSW 10:56:09 32° SSE 11:00:12 10° E daylight
28 May - 13:12:50 10° W 13:16:17 21° NNW 13:19:55 10° NNE daylight
28 May - 20:22:13 10° NNW 20:33:59 27° NE 20:50:32 10° E visible
28 May - 22:41:56 10° NW 23:00:30 71° NE 23:24:05 10° ESE visible
29 May - 01:06:40 10° WNW 01:28:22 55° SW 01:48:57 10° SE visible
29 May - 03:41:53 10° WSW 03:57:32 22° SSW 04:09:50 10° SSE visible
29 May - 08:52:26 10° S 08:55:03 12° SSE 08:57:19 10° SE daylight
29 May - 11:11:42 10° SW 11:17:24 59° SE 11:21:46 10° ENE daylight
29 May - 13:36:06 10° NW 13:37:37 11° NNW 13:39:12 10° N daylight
29 May - 20:42:40 10° NNW 20:55:52 35° NE 21:15:01 10° E visible
29 May - 23:03:07 10° NW 23:22:15 86° NE 23:46:02 10° SE visible
30 May - 01:29:25 10° W 01:50:30 45° SW 02:09:58 10° SSE visible
30 May - 04:07:53 10° WSW 04:20:33 18° SSW 04:30:40 10° SSE visible
30 May - 09:11:58 10° SSW 09:17:03 17° SSE 09:20:54 10° ESE daylight
30 May - 11:32:56 10° WSW 11:38:29 72° NW 11:42:52 10° NE daylight
30 May - 18:47:29 10° N 18:51:46 12° NNE 18:56:52 10° NE visible
30 May - 21:03:14 10° NNW 21:17:31 45° NE 21:38:42 10° ESE visible
30 May - 23:24:33 10° WNW 23:44:04 80° SW 00:07:41 10° SE visible
31 May - 01:52:48 10° W 02:12:54 36° SSW 02:30:57 10° SSE visible
31 May - 04:34:15 10° SW 04:43:52 15° SSW 04:51:43 10° SSE visible
31 May - 07:12:16 10° S 07:13:54 10° S 07:15:26 10° SSE daylight
31 May - 09:32:20 10° SSW 09:38:50 26° SSE 09:43:19 10° E daylight
31 May - 11:54:37 10° WSW 11:59:28 36° NW 12:03:33 10° NNE daylight
31 May - 19:06:26 10° N 19:13:57 17° NE 19:24:02 10° ENE visible
31 May - 21:23:57 10° NW 21:39:05 58° NE 22:01:42 10° ESE visible
